Madisonville, KY

9:54 PM CDT on October 18, 2017 (GMT -0500)
Madisonville

Weather History for K2I0 - November, 2012

Change the Weather History Date:

Thursday, November 8, 2012

  Actual Average (KOWB) Record (KOWB)
Temperature  
Mean Temperature 46 °F -  
Max Temperature 56 °F 60 °F 78 °F (2005)
Min Temperature 35 °F 38 °F 18 °F (1971)
Degree Days  
Heating Degree Days 20    
Moisture  
Dew Point 40 °F    
Average Humidity 83    
Maximum Humidity 100    
Minimum Humidity 54    
Precipitation  
Precipitation 0.00 in - - ()
Sea Level Pressure  
Sea Level Pressure 30.21 in    
Wind  
Wind Speed 1 mph ()    
Max Wind Speed 7 mph    
Max Gust Speed -    
Visibility 6.7 miles    
Events Fog    
Averages and records for this station are not official NWS values.
T = Trace of Precipitation, MM = Missing Value Source: Averaged Metar Reports

Daily Weather History Graph

Daily Weather History Graph

Search for Another Location

Airport or City:

Trip Planner

Search our weather history database for the weather conditions in past years. The results will help you decide how hot, cold, wet, or windy it might be!

Date:

Astronomy

Nov. 08, 2012 Rise Set
Actual Time 6:22 AM CST 4:44 PM CST
Civil Twilight 5:54 AM CST 5:11 PM CST
Nautical Twilight 5:23 AM CST 5:42 PM CST
Astronomical Twilight 4:52 AM CST 6:13 PM CST
Moon 12:24 AM CST (11/8) 1:18 PM CST (11/8)
Length of Visible Light 11h 17m
Length of Day
10h 22m
Waning Crescent, 32% of the Moon is Illuminated
Nov 8
Waning Crescent
Nov 13
New
Nov 20
First Quarter
Nov 28
Full
Dec 6
Last Quarter

Hourly Weather History & Observations

Time (CST) Temp. Windchill Dew Point Humidity Pressure Visibility Wind Dir Wind Speed Gust Speed Precip Events Conditions
12:15 AM 45.7 °F 43.4 °F 42.8 °F 90% 30.16 in 7.0 mi NW 4.6 mph - N/A   Overcast
12:35 AM 44.8 °F 43.3 °F 42.3 °F 91% 30.16 in 7.0 mi NW 3.5 mph - N/A   Mostly Cloudy
12:55 AM 43.3 °F - 41.5 °F 93% 30.17 in 7.0 mi Calm Calm - N/A   Scattered Clouds
1:15 AM 42.1 °F - 41.5 °F 98% 30.17 in 5.0 mi Calm Calm - N/A   Scattered Clouds
1:35 AM 41.2 °F - 40.8 °F 99% 30.18 in 5.0 mi Calm Calm - N/A   Scattered Clouds
1:55 AM 39.2 °F - 38.8 °F 99% 30.19 in 4.0 mi Calm Calm - N/A   Mostly Cloudy
2:15 AM 40.6 °F - 40.6 °F 100% 30.20 in 4.0 mi Calm Calm - N/A   Overcast
2:35 AM 41.0 °F - 41.0 °F 100% 30.20 in 4.0 mi Calm Calm - N/A   Overcast
2:55 AM 41.9 °F - 41.7 °F 99% 30.20 in 5.0 mi Calm Calm - N/A   Overcast
3:15 AM 41.4 °F - 41.4 °F 100% 30.21 in 4.0 mi Calm Calm - N/A   Overcast
3:35 AM 41.2 °F - 41.0 °F 99% 30.21 in 5.0 mi Calm Calm - N/A   Overcast
3:55 AM 41.2 °F - 41.0 °F 99% 30.21 in 4.0 mi Calm Calm - N/A   Overcast
4:15 AM 41.4 °F - 41.2 °F 99% 30.22 in 4.0 mi Calm Calm - N/A   Overcast
4:35 AM 39.7 °F - 39.6 °F 99% 30.22 in 4.0 mi Calm Calm - N/A   Scattered Clouds
4:55 AM 39.4 °F - 39.4 °F 100% 30.22 in 3.0 mi Calm Calm - N/A   Clear
5:15 AM 40.1 °F - 40.1 °F 100% 30.23 in 3.0 mi Calm Calm - N/A   Clear
5:35 AM 37.9 °F - 37.9 °F 100% 30.22 in 3.0 mi Calm Calm - N/A   Clear
5:55 AM 36.0 °F - 36.0 °F 100% 30.22 in 1.5 mi Calm Calm - N/A   Mist
6:15 AM 35.8 °F - 35.8 °F 100% 30.24 in 1.8 mi Calm Calm - N/A   Mostly Cloudy
6:55 AM 35.2 °F - 35.2 °F 100% 30.25 in 0.2 mi Calm Calm - N/A Fog Fog
7:15 AM 35.4 °F - 35.4 °F 100% 30.26 in 0.2 mi Calm Calm - N/A Fog Fog
7:35 AM 37.6 °F - 37.6 °F 100% 30.26 in 0.2 mi Calm Calm - N/A Fog Fog
7:55 AM 40.5 °F - 40.5 °F 100% 30.27 in 3.0 mi Calm Calm - N/A   Scattered Clouds
8:15 AM 43.3 °F - 43.3 °F 100% 30.27 in 3.0 mi Calm Calm - N/A   Clear
8:35 AM 45.0 °F - 44.1 °F 97% 30.27 in 5.0 mi Calm Calm - N/A   Clear
8:55 AM 46.6 °F - 43.9 °F 90% 30.28 in 5.0 mi Calm Calm - N/A   Clear
9:15 AM 47.7 °F - 44.4 °F 89% 30.28 in 5.0 mi Calm Calm - N/A   Clear
9:35 AM 49.1 °F - 43.9 °F 82% 30.29 in 7.0 mi Calm Calm - N/A   Clear
9:55 AM 49.5 °F - 43.3 °F 79% 30.29 in 7.0 mi Calm Calm - N/A   Clear
10:15 AM 50.5 °F - 42.6 °F 74% 30.28 in 10.0 mi Calm Calm - N/A   Clear
10:35 AM 51.6 °F - 41.7 °F 69% 30.28 in 10.0 mi Calm Calm - N/A   Clear
10:55 AM 53.2 °F - 41.9 °F 65% 30.27 in 10.0 mi Calm Calm - N/A   Mostly Cloudy
11:15 AM 54.0 °F - 41.7 °F 63% 30.26 in 10.0 mi Calm Calm - N/A   Overcast
11:35 AM 54.5 °F - 41.7 °F 62% 30.25 in 10.0 mi WSW 6.9 mph - N/A   Mostly Cloudy
11:55 AM 54.5 °F - 41.2 °F 61% 30.25 in 10.0 mi SW 5.8 mph - N/A   Scattered Clouds
12:15 PM 55.9 °F - 41.0 °F 57% 30.24 in 10.0 mi WSW 6.9 mph - N/A   Mostly Cloudy
12:35 PM 55.4 °F - 40.3 °F 57% 30.23 in 10.0 mi West 5.8 mph - N/A   Mostly Cloudy
12:55 PM 55.9 °F - 40.6 °F 56% 30.21 in 10.0 mi SSW 3.5 mph - N/A   Scattered Clouds
1:15 PM 56.3 °F - 40.3 °F 55% 30.21 in 10.0 mi SW 4.6 mph - N/A   Clear
1:35 PM 55.8 °F - 39.6 °F 55% 30.20 in 10.0 mi Calm Calm - N/A   Clear
1:55 PM 56.3 °F - 40.3 °F 55% 30.20 in 10.0 mi WSW 5.8 mph - N/A   Clear
2:15 PM 56.5 °F - 40.6 °F 55% 30.20 in 10.0 mi SW 3.5 mph - N/A   Clear
2:35 PM 56.7 °F - 41.0 °F 56% 30.20 in 10.0 mi West 3.5 mph - N/A   Clear
2:55 PM 56.8 °F - 40.6 °F 55% 30.19 in 10.0 mi West 4.6 mph - N/A   Clear
3:15 PM 56.5 °F - 40.3 °F 55% 30.19 in 10.0 mi Calm Calm - N/A   Clear
3:35 PM 56.5 °F - 40.1 °F 54% 30.19 in 10.0 mi Calm Calm - N/A   Clear
3:55 PM 56.3 °F - 40.3 °F 55% 30.19 in 10.0 mi Calm Calm - N/A   Clear
4:15 PM 55.9 °F - 40.1 °F 55% 30.18 in 10.0 mi Calm Calm - N/A   Clear
4:35 PM 54.5 °F - 40.5 °F 59% 30.18 in 2.0 mi Calm Calm - N/A   Haze
4:55 PM 52.9 °F - 40.6 °F 63% 30.18 in 0.2 mi Calm Calm - N/A   Haze
5:15 PM 49.8 °F - 40.5 °F 70% 30.18 in 2.5 mi Calm Calm - N/A   Haze
5:35 PM 48.7 °F - 40.3 °F 73% 30.18 in 2.5 mi Calm Calm - N/A   Haze
5:55 PM 46.4 °F 45.2 °F 39.4 °F 77% 30.19 in 4.0 mi SSW 3.5 mph - N/A   Haze
6:15 PM 46.9 °F - 39.9 °F 77% 30.19 in 10.0 mi SSW 3.5 mph - N/A   Clear
6:35 PM 46.4 °F - 40.1 °F 79% 30.19 in 10.0 mi Calm Calm - N/A   Clear
6:55 PM 44.8 °F - 39.4 °F 81% 30.19 in 10.0 mi Calm Calm - N/A   Clear
7:15 PM 43.2 °F - 39.2 °F 86% 30.18 in 10.0 mi Calm Calm - N/A   Clear
7:35 PM 42.3 °F - 39.0 °F 88% 30.18 in 10.0 mi Calm Calm - N/A   Clear
7:55 PM 42.6 °F - 38.7 °F 86% 30.19 in 10.0 mi Calm Calm - N/A   Clear
8:15 PM 40.8 °F - 38.7 °F 92% 30.19 in 10.0 mi Calm Calm - N/A   Clear
8:35 PM 41.9 °F - 39.0 °F 90% 30.19 in 10.0 mi Calm Calm - N/A   Clear
8:55 PM 40.3 °F - 38.1 °F 92% 30.19 in 10.0 mi Calm Calm - N/A   Clear
9:15 PM 40.1 °F - 37.4 °F 90% 30.19 in 10.0 mi Calm Calm - N/A   Clear
9:35 PM 40.1 °F - 38.1 °F 93% 30.19 in 10.0 mi Calm Calm - N/A   Clear
9:55 PM 38.5 °F - 37.4 °F 96% 30.18 in 7.0 mi Calm Calm - N/A   Clear
10:15 PM 37.6 °F - 36.9 °F 97% 30.17 in 7.0 mi Calm Calm - N/A   Clear
10:35 PM 37.8 °F - 37.2 °F 98% 30.17 in 7.0 mi Calm Calm - N/A   Clear
10:55 PM 37.6 °F 35.1 °F 37.0 °F 98% 30.17 in 7.0 mi South 3.5 mph - N/A   Clear
11:15 PM 36.9 °F 34.3 °F 36.0 °F 97% 30.18 in 7.0 mi South 3.5 mph - N/A   Clear
11:35 PM 37.6 °F 35.1 °F 36.5 °F 96% 30.18 in 7.0 mi South 3.5 mph - N/A   Clear
11:55 PM 37.4 °F - 36.9 °F 98% 30.18 in 7.0 mi Calm Calm - N/A   Clear